Location: Asis
(14.1331°N, 120.9056°E)
Time: 22:50:41
(UTC+00:00)

ATLAS 2AS CENTAUR RB - Visible Passes

Search period start: 18 April 2026 00:00
Search period end: 28 April 2026 00:00
Orbit: 315 x 22190 km, 12.7° (Epoch: 17 April)

Date Brightness Start Highest point End Pass type
(mag) Time Alt. Az. Time Alt. Az. Time Alt. Az.
18 Apr 6.1 21:16:32 10° WSW 21:57:01 69° SSE 02:44:19 10° E visible
20 Apr 4.5 11:31:59 10° WSW 11:35:14 12° SW 11:37:27 10° SSW visible
20 Apr 5.5 18:33:03 32° S 18:38:27 36° SE 22:47:46 10° E visible
21 Apr 5.7 20:26:09 16° SW 20:50:37 62° SSE 01:45:22 10° E visible
23 Apr 4.5 10:27:39 10° W 10:43:17 23° SW 10:48:18 10° SSE visible
23 Apr 5.8 17:43:56 26° SE 17:44:31 26° SE 18:36:57 10° E visible
24 Apr 5.4 19:36:54 29° SSW 19:50:54 54° SSE 00:40:55 10° E visible
26 Apr 6.2 16:54:28 15° SE 16:54:28 15° SE 17:04:43 10° ESE visible
27 Apr 5.4 18:47:18 37° S 18:54:09 45° SE 23:24:14 10° E visible
